Temperature
9 10 10 10 10 11 11 12 12 12 12 12 12 12 13 13 13 13 13 13 14 15 15 15 15 15 15 15 15 15 15 16 16 16 16 16 16 15 15 15 16 16 16
7 7 8 8 9 10 10 11 11 11 12 12 12 12 12 12 12 12 12 13 13 14 15 15 15 15 15 15 15 15 15 15 16 16 16 16 15 15 15 15 16 16 16
4 5 5 6 6 7 8 9 10 10 11 11 12 12 12 12 12 12 12 12 12 13 14 14 15 15 15 15 15 15 15 15 15 16 16 15 15 15 15 15 15 16 16
2 3 3 4 4 5 6 6 7 8 9 10 10 11 11 11 12 12 12 12 12 12 13 13 14 14 15 15 15 15 15 15 15 15 15 15 15 15 15 15 15 15 16
1 1 2 2 3 3 4 4 5 6 7 8 9 10 10 11 11 12 12 12 12 12 12 12 13 13 14 14 14 15 15 15 15 15 15 15 15 15 15 15 15 15 15
-0 0 0 1 2 2 2 3 3 4 5 6 7 9 10 10 11 11 11 12 12 12 12 12 12 13 13 14 14 14 15 15 14 14 15 15 15 14 14 15 15 15 15
-2 -2 -2 -1 -0 -0 1 1 2 3 4 5 6 7 9 10 10 10 11 11 11 12 12 12 12 12 12 13 13 14 14 14 14 14 14 14 15 14 14 14 15 15 15
-3 -4 -4 -4 -3 -3 -1 -1 0 1 2 3 3 5 9 10 10 10 10 11 11 11 11 12 12 12 12 12 13 13 14 14 14 14 14 14 14 14 14 14 14 14 14
-4 -5 -5 -5 -5 -4 -4 -3 -2 -2 -1 2 2 3 7 10 11 11 10 10 11 11 11 11 12 12 12 12 12 13 13 13 14 14 14 14 14 14 14 14 14 14 14
-5 -6 -6 -6 -5 -5 -5 -4 -3 -3 -2 -1 1 2 3 6 8 10 11 10 10 11 11 11 12 12 12 12 12 13 13 13 13 14 14 14 14 14 14 14 14 14 14
-6 -6 -6 -6 -6 -5 -5 -4 -3 -3 -3 -2 -2 -0 1 3 5 7 9 10 10 10 11 11 11 12 12 12 12 13 13 13 13 13 14 14 14 14 14 13 13 13 13
-7 -7 -7 -7 -6 -6 -5 -4 -3 -3 -3 -2 -2 -1 -0 1 4 6 7 9 10 10 10 10 11 11 11 12 12 13 13 13 13 13 13 13 14 14 13 13 13 13 13
-9 -8 -8 -7 -7 -6 -5 -4 -4 -3 -2 -2 -2 -1 -1 0 2 4 6 7 9 9 9 9 10 11 11 11 12 12 12 13 13 13 13 13 13 13 13 13 13 13 13
-10 -9 -9 -8 -7 -6 -5 -5 -4 -3 -2 -2 -1 -1 -1 -0 1 2 4 6 7 8 9 9 9 10 10 11 11 12 12 12 13 13 13 13 13 13 13 13 12 12 12
-10 -9 -9 -8 -7 -7 -6 -6 -5 -4 -3 -2 -1 -1 -1 -0 1 2 3 4 5 7 8 9 8 9 10 10 11 11 11 12 12 13 13 13 13 12 12 12 12 12 12
-11 -10 -9 -8 -8 -7 -6 -6 -6 -5 -4 -3 -2 -1 -0 0 1 2 2 3 4 5 6 8 8 8 9 10 10 10 10 11 11 12 12 12 12 12 12 12 11 11 11
-12 -11 -10 -9 -8 -8 -7 -7 -6 -6 -5 -4 -3 -2 -1 -0 1 1 2 3 3 4 5 6 7 8 9 9 9 9 9 9 9 10 11 11 11 11 11 11 10 10 10
-12 -12 -11 -9 -8 -8 -7 -7 -7 -7 -6 -5 -4 -3 -2 -1 -0 1 2 2 3 4 4 5 5 7 8 8 8 8 8 8 8 8 9 9 9 9 9 9 9 8 8
-13 -12 -11 -10 -9 -8 -8 -8 -7 -7 -6 -6 -5 -4 -3 -2 -1 -0 1 2 2 3 4 4 5 6 7 8 8 8 7 7 7 7 7 7 7 7 7 7 7 7 7
-13 -13 -12 -11 -10 -9 -8 -8 -8 -7 -7 -6 -6 -5 -4 -3 -2 -1 -0 1 2 2 3 4 4 5 6 7 7 7 6 6 6 6 6 6 6 6 6 6 6 6 6
-14 -13 -13 -12 -11 -10 -9 -8 -8 -8 -8 -8 -7 -6 -5 -4 -3 -2 -1 -0 1 2 2 3 4 5 5 5 6 6 6 6 5 5 5 5 5 5 5 5 5 5 5
-14 -13 -13 -13 -12 -11 -10 -8 -8 -8 -8 -8 -8 -7 -6 -5 -4 -3 -2 -1 -1 0 1 2 3 3 4 4 5 5 5 5 5 4 4 4 4 4 4 4 4 4 4
-14 -14 -14 -13 -12 -12 -10 -9 -8 -9 -9 -9 -8 -8 -7 -7 -5 -4 -3 -2 -2 -1 -0 1 1 2 3 3 4 5 5 5 4 4 4 4 4 4 4 4 4 4 4
-15 -14 -14 -13 -12 -12 -11 -9 -9 -9 -9 -9 -8 -8 -8 -7 -7 -5 -4 -4 -3 -3 -2 -1 -0 -0 1 2 3 3 4 4 4 4 4 3 2 2 3 3 3 3 3
-14 -14 -14 -13 -13 -12 -11 -10 -9 -9 -9 -9 -8 -8 -8 -8 -8 -7 -6 -5 -5 -4 -4 -3 -2 -2 -1 0 1 2 3 3 3 3 3 3 2 2 1 1 2 2 2
-14 -14 -14 -13 -13 -12 -12 -10 -10 -9 -9 -9 -9 -9 -9 -9 -8 -8 -8 -7 -7 -6 -6 -5 -4 -3 -2 -1 -0 1 1 2 2 2 2 2 1 1 1 0 1 1 2
Wind_Speed
16 17 17 17 18 17 15 13 11 11 11 10 11 12 13 12 12 11 9 10 13 14 15 16 16 16 18 22 23 22 20 19 17 16 15 13 12 11 10 9 9 9 9
18 17 16 16 16 18 18 16 14 12 10 9 10 11 12 13 12 13 12 11 14 15 16 16 17 18 18 20 23 23 22 21 20 18 17 15 14 13 12 11 10 10 10
21 20 15 14 15 19 19 16 16 13 11 10 11 12 11 12 12 13 13 12 12 15 17 17 18 19 19 20 22 24 24 23 22 20 19 17 16 15 14 13 12 11 10
22 20 15 13 17 17 15 13 13 13 12 11 11 11 10 10 13 13 13 13 13 12 14 18 19 19 20 21 22 23 25 25 24 22 21 19 18 17 16 15 14 13 12
22 20 16 16 19 15 12 12 13 13 14 13 13 12 12 11 12 13 14 14 14 14 14 14 18 20 20 22 23 24 25 26 26 24 23 21 20 19 18 17 16 15 14
22 20 16 18 18 13 12 13 15 14 13 14 14 14 14 13 12 13 14 13 12 14 15 15 14 16 21 22 22 24 25 25 26 25 24 23 22 21 20 18 17 16 15
22 20 16 16 16 14 15 16 14 15 13 12 13 14 15 17 17 14 13 13 14 14 14 15 14 14 14 20 22 23 25 25 25 25 25 25 24 23 22 20 19 18 16
23 20 18 15 15 15 17 16 15 12 12 10 9 11 12 14 15 15 15 14 15 13 14 14 15 15 14 14 16 24 25 26 25 25 25 26 26 25 23 22 21 19 18
23 22 20 18 16 15 15 17 16 15 13 13 11 8 9 11 11 12 15 15 15 14 14 13 15 15 16 15 15 20 25 27 27 25 25 26 27 27 26 24 23 21 19
23 22 21 21 17 15 16 16 15 14 14 13 12 11 12 12 11 11 9 11 14 14 14 12 13 14 15 14 15 14 20 26 28 27 26 26 27 28 28 27 26 23 21
21 22 22 21 18 15 17 17 17 15 12 13 12 12 13 12 15 14 14 11 10 10 11 12 11 11 13 14 13 16 16 21 26 28 27 27 27 29 29 29 28 26 23
17 21 23 21 20 16 17 18 17 17 14 14 13 13 12 11 11 12 16 16 14 12 11 9 10 10 10 12 14 14 15 18 20 24 26 27 28 29 30 30 29 27 25
17 20 21 19 18 18 18 17 17 17 15 15 14 13 13 14 14 13 14 15 16 13 11 10 10 9 9 10 12 14 16 17 18 20 21 23 26 28 30 30 29 27 26
17 21 22 21 21 21 18 17 15 16 15 15 15 15 13 14 13 14 13 13 14 14 14 14 10 10 9 9 10 13 14 18 19 20 21 22 24 26 27 29 29 28 27
19 22 22 20 20 20 18 18 14 16 16 15 14 14 13 13 13 14 13 12 13 14 15 15 11 11 9 8 9 11 12 14 17 19 21 23 23 24 25 26 27 26 25
22 22 21 20 20 19 18 17 16 16 16 15 12 12 12 11 12 13 14 12 12 14 14 12 11 10 10 8 9 10 9 13 13 14 15 19 22 24 26 27 28 27 26
21 21 21 21 20 19 18 16 16 17 16 16 14 13 12 11 9 11 12 13 14 13 13 11 7 7 10 10 9 8 10 10 11 16 17 19 20 22 25 26 27 26 26
20 20 20 20 20 20 19 17 17 16 15 15 15 14 14 11 11 9 9 12 13 14 13 13 8 8 9 11 12 11 10 9 9 16 19 19 20 21 23 23 23 23 24
20 20 20 20 20 20 19 17 15 15 15 14 15 14 14 14 12 9 8 9 10 12 12 12 10 8 6 8 11 12 12 10 9 14 18 19 21 22 22 23 23 23 23
20 20 20 19 19 19 19 18 12 12 13 14 14 13 13 14 14 11 7 7 7 9 11 10 9 9 8 9 11 13 12 11 10 11 11 14 18 20 21 23 23 23 24
19 19 19 20 19 17 18 20 10 11 12 13 14 13 13 17 20 15 9 7 5 3 5 8 9 9 9 10 10 9 12 11 9 9 11 11 12 11 14 19 20 22 22
19 19 19 20 20 16 26 29 14 11 11 13 14 14 14 15 18 20 21 20 17 8 4 2 5 8 8 7 7 10 12 12 7 7 10 9 10 10 10 14 19 22 22
18 18 18 19 19 21 29 30 18 12 11 12 13 13 12 13 16 13 17 21 22 25 20 11 11 8 7 7 3 9 10 11 7 7 11 7 7 9 8 13 21 23 23
16 16 17 19 19 20 28 30 19 11 10 11 12 13 12 14 15 14 13 14 17 19 20 16 15 15 13 10 8 5 7 9 8 6 4 5 5 7 10 14 19 21 22
15 16 16 17 18 19 26 28 19 9 9 11 12 12 14 16 21 20 15 15 16 15 20 26 27 25 28 27 17 6 5 8 5 4 5 4 5 5 7 8 14 18 19
15 15 15 15 16 17 24 27 22 9 9 9 10 13 20 21 23 22 16 15 15 14 14 16 19 22 21 23 25 16 8 4 4 3 4 3 5 5 5 4 6 9 12
Wind_Direction
345 343 337 336 334 335 332 326 318 312 301 287 270 259 254 251 248 247 243 217 231 239 242 242 241 239 233 227 220 215 211 211 211 208 202 197 193 188 183 179 176 175 176
342 338 333 332 331 333 328 321 314 306 294 283 274 267 261 257 252 249 249 234 226 236 241 240 239 238 235 229 222 217 213 212 211 209 205 201 197 192 186 182 178 177 179
341 337 330 327 330 329 324 321 316 310 298 287 275 267 262 259 257 253 249 248 241 228 230 236 237 237 235 231 224 218 215 212 210 208 205 201 197 194 190 186 183 182 183
343 337 330 328 330 326 322 320 317 315 305 292 279 270 263 257 256 254 252 246 245 244 230 224 230 234 235 233 227 221 217 214 209 206 204 201 197 196 194 191 189 188 188
341 337 330 330 331 327 323 321 319 315 307 297 283 272 264 260 256 252 248 245 241 240 244 226 218 228 233 234 230 224 219 215 211 207 205 203 199 198 198 196 193 192 193
338 335 330 331 331 327 326 324 319 314 305 296 286 274 264 259 255 253 250 244 238 236 238 243 234 226 226 232 232 225 220 215 213 210 206 204 202 201 200 198 195 194 194
335 333 330 329 329 325 322 319 320 316 311 306 293 275 259 251 250 248 246 244 239 235 234 236 239 239 226 219 226 224 218 216 214 213 211 207 204 202 200 198 195 194 194
333 332 331 329 326 322 318 319 319 314 308 307 305 293 266 253 241 239 241 239 239 237 235 233 235 235 236 229 217 216 216 214 214 214 213 211 208 204 201 197 195 193 192
329 328 328 328 324 321 315 314 311 307 307 304 288 282 274 259 257 237 233 236 236 235 234 233 232 234 234 233 226 210 210 212 214 216 215 212 210 207 202 196 193 192 191
328 327 328 327 323 319 313 309 305 301 297 293 293 275 274 284 277 259 234 229 234 235 232 229 229 230 231 231 230 222 204 211 215 216 215 213 211 208 203 197 192 190 189
329 328 329 326 322 318 312 309 304 295 288 282 280 282 286 282 267 261 258 246 230 230 230 227 224 227 227 226 226 222 205 210 216 216 214 212 210 209 205 198 193 189 187
329 329 329 325 321 318 314 311 306 295 285 276 272 270 268 268 266 257 251 251 249 238 226 225 223 222 223 224 224 215 207 212 217 218 215 212 210 209 206 199 193 188 184
329 328 327 323 320 318 315 315 313 303 292 282 273 266 263 263 266 268 264 256 252 249 231 226 225 219 218 220 222 206 212 215 218 219 217 212 210 208 205 197 190 186 181
325 325 324 321 319 319 318 319 320 316 308 295 280 269 263 261 260 258 258 259 254 248 239 234 220 216 212 215 220 202 216 211 215 216 215 211 207 203 200 193 187 182 177
325 326 324 322 321 322 321 322 323 323 318 308 292 277 266 261 257 254 251 250 252 247 241 235 222 212 205 207 201 210 216 201 203 209 210 207 200 191 184 178 174 168 157
327 326 327 325 323 323 324 323 325 327 327 322 313 299 283 270 260 254 247 243 246 249 251 245 224 207 193 193 192 199 188 158 162 167 174 177 171 161 156 153 150 149 150
329 329 328 327 325 326 327 322 328 333 333 332 330 325 319 302 282 263 253 243 239 239 245 250 222 201 189 183 174 172 151 143 136 130 130 131 134 137 138 139 143 147 149
332 330 330 328 328 330 330 323 328 337 339 338 338 341 342 333 314 286 265 251 243 234 232 232 207 193 189 182 172 162 147 134 130 129 125 123 124 127 130 134 139 143 145
335 334 333 331 331 331 330 324 328 340 342 342 343 345 344 342 335 316 293 269 251 237 226 223 203 183 169 170 165 152 145 135 132 138 133 134 136 137 140 142 144 145 144
337 337 335 333 332 331 328 323 327 344 345 345 346 345 344 347 345 337 322 305 269 239 224 211 189 174 158 164 161 151 143 138 139 142 136 139 141 142 147 150 150 147 146
338 338 337 336 336 334 330 333 338 348 347 348 349 349 347 356 358 4 9 358 332 269 220 193 176 162 155 161 162 154 143 130 122 139 138 142 144 143 145 144 144 146 145
337 338 337 337 337 337 334 341 350 347 348 350 351 352 354 359 3 8 21 33 33 26 23 93 138 136 126 132 140 144 140 141 134 122 119 117 137 140 147 153 149 144 140
335 336 335 336 337 338 338 343 350 346 350 354 355 357 2 7 13 10 20 30 34 37 41 52 61 57 59 39 105 152 163 156 128 134 130 106 99 97 93 114 131 133 131
331 332 334 337 338 340 341 343 348 350 355 359 360 1 13 20 23 25 27 35 39 38 41 48 56 52 49 37 29 54 103 99 86 46 86 116 100 85 80 84 100 112 118
330 331 333 337 340 342 344 348 358 356 1 3 6 19 32 35 34 33 33 37 39 34 37 48 52 50 47 45 39 51 99 128 114 54 31 99 118 96 75 67 77 94 104
331 332 333 338 343 346 348 356 5 357 3 7 14 30 41 41 39 39 36 37 39 35 37 41 44 43 43 41 41 37 32 83 103 88 30 81 119 119 99 67 57 70 90
Height
1518 1514 1511 1508 1506 1503 1502 1500 1499 1497 1496 1496 1496 1496 1496 1496 1497 1497 1498 1497 1499 1501 1503 1505 1508 1511 1514 1517 1519 1522 1524 1527 1529 1531 1533 1535 1537 1539 1542 1544 1546 1548 1550
1514 1510 1506 1503 1501 1498 1496 1495 1494 1493 1492 1491 1490 1490 1490 1491 1491 1492 1492 1493 1493 1495 1496 1499 1501 1505 1508 1511 1514 1517 1520 1523 1525 1527 1530 1532 1534 1537 1539 1541 1543 1546 1548
1510 1506 1502 1498 1495 1492 1490 1489 1488 1487 1486 1485 1484 1484 1484 1485 1485 1486 1487 1487 1488 1489 1490 1492 1495 1498 1502 1506 1509 1512 1515 1518 1521 1524 1526 1528 1531 1533 1536 1538 1541 1543 1545
1506 1502 1498 1494 1490 1487 1485 1483 1482 1480 1479 1479 1478 1478 1478 1477 1478 1479 1480 1481 1482 1483 1485 1486 1488 1491 1495 1499 1503 1506 1509 1512 1516 1519 1522 1524 1527 1530 1532 1535 1538 1540 1543
1502 1498 1494 1490 1485 1482 1479 1477 1476 1474 1472 1472 1472 1471 1471 1471 1471 1472 1473 1474 1475 1477 1479 1481 1482 1485 1488 1492 1496 1500 1504 1507 1511 1515 1518 1520 1523 1526 1529 1532 1535 1537 1540
1498 1494 1490 1486 1481 1477 1474 1472 1469 1467 1466 1465 1464 1463 1464 1464 1464 1465 1466 1467 1468 1470 1472 1475 1477 1478 1481 1485 1489 1493 1497 1501 1505 1509 1513 1516 1519 1522 1525 1528 1531 1534 1537
1495 1490 1486 1481 1477 1473 1469 1466 1463 1460 1460 1460 1458 1457 1456 1457 1457 1458 1459 1460 1462 1463 1465 1467 1470 1473 1475 1477 1481 1486 1490 1495 1499 1502 1507 1511 1514 1518 1521 1524 1527 1530 1533
1492 1487 1483 1478 1474 1469 1465 1462 1458 1455 1453 1455 1454 1452 1450 1450 1449 1450 1451 1452 1454 1456 1458 1460 1463 1465 1468 1471 1473 1478 1483 1488 1492 1496 1500 1505 1509 1513 1517 1520 1523 1527 1530
1488 1484 1480 1475 1470 1466 1462 1458 1454 1451 1448 1447 1449 1450 1447 1442 1443 1443 1443 1444 1446 1448 1450 1452 1455 1458 1461 1464 1467 1470 1475 1481 1485 1490 1494 1498 1503 1507 1511 1515 1519 1523 1526
1484 1480 1476 1472 1467 1462 1458 1454 1451 1447 1444 1441 1441 1441 1442 1441 1440 1436 1437 1437 1438 1440 1442 1444 1447 1450 1453 1456 1459 1463 1467 1473 1478 1483 1487 1491 1496 1501 1505 1510 1514 1518 1522
1480 1476 1472 1467 1462 1458 1453 1450 1446 1442 1439 1436 1434 1433 1433 1433 1433 1434 1432 1432 1432 1433 1435 1437 1439 1442 1445 1448 1451 1455 1459 1465 1470 1475 1480 1485 1489 1494 1499 1503 1508 1513 1517
1476 1472 1467 1462 1458 1453 1449 1444 1440 1436 1433 1430 1427 1426 1426 1427 1427 1428 1427 1427 1428 1429 1429 1431 1432 1435 1437 1440 1444 1448 1452 1457 1462 1467 1472 1478 1483 1487 1492 1497 1502 1507 1512
1473 1467 1463 1458 1453 1449 1444 1439 1434 1429 1426 1423 1421 1419 1418 1418 1420 1421 1421 1421 1422 1423 1424 1424 1426 1428 1430 1433 1437 1441 1445 1449 1454 1459 1464 1470 1475 1481 1486 1491 1495 1500 1505
1471 1465 1460 1455 1450 1445 1440 1435 1429 1423 1419 1416 1414 1412 1410 1410 1412 1413 1415 1416 1416 1417 1417 1419 1420 1422 1424 1427 1430 1434 1437 1442 1446 1451 1456 1462 1468 1473 1479 1484 1489 1494 1499
1469 1462 1457 1451 1446 1441 1436 1431 1425 1419 1414 1410 1407 1405 1403 1402 1403 1405 1407 1409 1411 1411 1411 1413 1414 1415 1418 1421 1424 1427 1430 1434 1439 1444 1449 1454 1460 1466 1472 1477 1483 1488 1493
1466 1459 1453 1448 1443 1438 1433 1428 1423 1416 1409 1404 1401 1398 1397 1396 1396 1397 1399 1401 1403 1405 1405 1407 1409 1410 1413 1416 1418 1421 1424 1428 1432 1436 1442 1447 1453 1459 1465 1471 1476 1482 1488
1463 1457 1450 1445 1440 1435 1430 1425 1421 1414 1407 1401 1396 1393 1391 1390 1389 1390 1391 1393 1395 1397 1398 1402 1403 1404 1407 1410 1414 1417 1420 1423 1427 1431 1436 1441 1447 1453 1459 1465 1471 1477 1483
1461 1455 1448 1442 1437 1432 1427 1422 1418 1412 1405 1399 1394 1390 1387 1384 1383 1383 1383 1385 1386 1389 1392 1396 1397 1399 1402 1406 1409 1413 1416 1420 1424 1429 1433 1438 1444 1449 1454 1460 1465 1472 1478
1460 1453 1447 1441 1435 1430 1425 1420 1416 1411 1404 1398 1392 1388 1384 1381 1378 1377 1376 1377 1378 1381 1384 1388 1390 1392 1396 1400 1405 1409 1414 1418 1423 1428 1432 1437 1442 1448 1453 1458 1464 1470 1475
1459 1452 1446 1440 1434 1428 1422 1418 1414 1409 1403 1397 1392 1387 1383 1380 1376 1373 1371 1370 1371 1373 1375 1379 1383 1386 1389 1394 1399 1404 1410 1416 1422 1426 1431 1437 1442 1447 1452 1458 1464 1468 1474
1458 1452 1445 1439 1433 1427 1421 1417 1413 1408 1402 1396 1391 1387 1383 1379 1376 1372 1369 1366 1366 1365 1367 1371 1375 1379 1383 1388 1394 1400 1406 1412 1420 1425 1430 1436 1441 1446 1451 1457 1463 1468 1474
1458 1451 1445 1439 1433 1427 1421 1417 1412 1408 1403 1398 1392 1387 1383 1379 1375 1372 1369 1366 1363 1362 1363 1365 1368 1373 1378 1384 1390 1396 1402 1409 1418 1423 1427 1435 1441 1447 1451 1457 1462 1467 1472
1457 1450 1445 1439 1433 1427 1422 1417 1412 1408 1404 1400 1395 1390 1385 1381 1377 1374 1370 1367 1364 1362 1362 1362 1364 1369 1375 1381 1388 1394 1400 1407 1413 1420 1427 1433 1439 1444 1450 1456 1461 1466 1470
1456 1451 1445 1439 1434 1428 1422 1417 1412 1409 1406 1401 1397 1393 1389 1385 1381 1377 1374 1371 1368 1365 1364 1364 1366 1370 1375 1380 1386 1392 1397 1404 1411 1418 1425 1431 1437 1443 1449 1454 1459 1463 1468
1456 1451 1445 1440 1435 1429 1423 1418 1413 1410 1407 1403 1399 1396 1393 1390 1386 1382 1378 1376 1373 1371 1370 1370 1371 1373 1376 1381 1387 1393 1398 1404 1409 1415 1421 1426 1433 1440 1446 1450 1455 1460 1464
1456 1451 1446 1441 1436 1431 1425 1420 1415 1412 1409 1406 1402 1399 1397 1394 1390 1387 1384 1381 1379 1378 1377 1376 1376 1378 1380 1384 1388 1393 1398 1403 1407 1413 1418 1423 1428 1435 1441 1446 1451 1456 1460